Regional Weather Roundup
Issued by NWS Charleston, SC

Current Version | Previous Version | Graphics & Text | Print | Product List | Glossary On
Versions: 1 2 3 4 5 6 7 8 9 10 11 12 13 14 15 16 17 18 19 20 21 22 23 24 25 26 27 28 29 30 31 32 33 34 35 36 37 38 39 40 41 42 43 44 45 46 47 48 49 50
000 ASUS42 KCHS 242012 RWRCHS REGIONAL WEATHER ROUNDUP NATIONAL WEATHER SERVICE CHARLESTON SC 400 PM EDT WED MAY 24 2017 NOTE: "FAIR" INDICATES FEW OR NO CLOUDS BELOW 12,000 FEET WITH NO SIGNIFICANT WEATHER AND/OR OBSTRUCTIONS TO VISIBILITY. NOT ALL STATIONS ARE QUALITY CONTROLLED. USE DATA WITH CAUTION... ESPECIALLY DEWPOINT OBSERVATIONS. SCZ027-030-031-034>040-042>050-242100- ...SOUTHEAST SOUTH CAROLINA... CITY SKY/WX TMP DP RH WIND PRES REMARKS N CHARLESTON LGT RAIN 70 66 87 S22G28 29.64F WATERFRONT PRK N/A 72 69 90 SW15G23 29.64F JOHNS ISLAND MOCLDY 72 70 94 S17G30 29.67F FOG PINOPOLIS N/A 72 70 94 SW8G15 29.54F MONCKS CORNER FAIR 68 66 94 S15G25 29.60F SUMMERVILLE DRIZZLE 70 66 88 S7 29.60F BEAUFORT MCAS CLOUDY 71 71 100 SE13G18 29.60F BEAUFORT ARPT LGT RAIN 70 70 100 S7 29.62F HILTON HEAD IS DRIZZLE 72 72 100 S9 29.65F WALTERBORO DRIZZLE 70 64 83 S18G24 29.60F ALLENDALE FAIR 72 66 83 S15G23 29.56F ...SOUTHERN MIDLANDS AND PEE DEE... CITY SKY/WX TMP DP RH WIND PRES REMARKS GEORGETOWN DRIZZLE 73 68 83 SW18G25 29.64F KINGSTREE FAIR 70 68 94 SE20G25 29.55F ORANGEBURG CLOUDY 71 67 87 S17G30 29.57F BARNWELL FAIR 75 68 78 S17G28 29.56R AIKEN LGT RAIN 72 68 88 S12G17 29.58S MANNING FAIR 72 68 88 S21 29.58F COLUMBIA TSTM 71 68 90 SW7 29.54F SUMTER PTSUNNY 70 66 88 S23G37 29.53S FLORENCE TSTM 70 68 93 S13G28 29.57S MYRTLE BEACH PTSUNNY 77 73 88 S22 29.62 N MYRTLE BEACH CLOUDY 78 73 84 S20G28 29.62F $$ GAZ063-065-086>088-099>101-113>116-118-119-134>141-150-242100- ...SOUTHEAST GEORGIA... CITY SKY/WX TMP DP RH WIND PRES REMARKS SAVANNAH ARPT CLOUDY 74 68 81 SE12 29.59F HUNTER AAF NOT AVBL FORT STEWART NOT AVBL STATESBORO CLOUDY 73 73 100 S12G21 29.59S SYLVANIA CLOUDY 72 69 90 S8 29.59F CLAXTON CLOUDY 71 71 100 SE8 29.59S ...CSRA...CENTRAL AND FAR SOUTHEAST GEORGIA... CITY SKY/WX TMP DP RH WIND PRES REMARKS THOMSON RAIN 68 67 96 W7 29.58F FOG AUGUSTA-BUSH HVY RAIN 74 70 87 SW7 29.53S FOG AUGUSTA-DANIEL RAIN 71 67 87 SW9 29.54F FOG SWAINSBORO CLOUDY 73 68 83 S18 29.57F VIDALIA CLOUDY 73 68 83 S17 29.58F EASTMAN RAIN 74 63 68 SW9G20 29.57F HAZLEHURST CLOUDY 75 71 87 SW10G18 29.57F ALMA CLOUDY 73 69 87 S12 29.59F WAYCROSS LGT RAIN 75 75 100 S14 29.59F JESUP CLOUDY 73 68 83 SW6 29.62S BAXLEY LGT RAIN 72 72 100 S8G16 29.59S BRUNSWICK CLOUDY 72 72 100 S5 29.64F SAINT SIMONS CLOUDY 74 71 91 S9 29.63F $$ SCZ027-028-034-036>038-045-046-048>050-GAZ119-141-242100- ...LAKE AND SUPPLEMENTAL COASTAL OBSERVATIONS... STATION/POSITION TIME TEMP WIND PRES WAVE SWELL AIR SEA DIR/SP/G HT/PER HT/PER/DIR (UTC) (F) (DEG/KT/KT) (MB) (FT/S) (FT/S/D) WINYAH BAY NOT AVBL LAKE MURRAY 1920 73 180/ 12/ 15 1000.0F ACE BASIN NERRS 1845 70 180/ 4 1006.0 FORT PULASKI 1948 72 170/ 7/ 12 1003.4F SAPELO ISLAND 1900 71 160/ 2 1004.0 $$ ANZ835-935-AMZ111-154-330-350-352-354-370-450-454-472-242100- ...C-MAN AND BUOY OBSERVATIONS... STATION/POSITION TIME TEMP WIND PRES WAVE SWELL AIR SEA DIR/SP/G HT/PER HT/PER/DIR (UTC) (F) (DEG/KT/KT) (MB) (FT/S) (FT/S/D) BUOY 41004 1950 74 77 230/ 25/ 33 1004.0F 7/ 6 2/240/15 BUOY 41008 1850 73 78 190/ 14/ 17 1005.0 4/ 6 2/ 60/12 FOLLY BEACH CMAN 1900 72 230/ 21/ 26 1005.7F CAPERS NEARSHORE 1908 79 77 230/ 27/ 41 1003.9F FRIPP NEARSHORE 1908 72 78 220/ 19/ 27 1004.7F STATION/POSITION TIME TEMP WIND PRES WAVE SWELL AIR SEA DIR/SP/G HT/PER HT/PER/DIR (UTC) (F) (DEG/KT/KT) (MB) (FT/S) (FT/S/D) 5E ST. MARYS GA 1930 79 N/A 3/ 6 FRYING PAN BUOY 1950 78 77 200/ 12/ 17 1004.6F 6/ 8 5/180/ 8 BUOY 41025 1950 76 75 220/ 8/ 10 1005.9F 4/ 8 3/180/ 8 CAPE LOOKOUT NC 1900 75 160/ 8/ 10 1005.5R BUOY 41002 1950 78 76 190/ 19/ 23 1009.7F 8/ 8 2/ 10/24 BUOY 41010 1950 80 79 180/ 16/ 21 1007.6F 6/ 6 2/ 70/12 ST AUGUSTINE FL 2000 76 78 240/ 10/ 15 1006.2R $$

USA.gov is the U.S. government's official web portal to all federal, state and local government web resources and services.